Regional Weather Roundup
Issued by NWS Boston, MA

Home | Current Version | Previous Version | Text Only | Print | Product List | Glossary On
Versions: 1 2 3 4 5 6 7 8 9 10 11 12 13 14 15 16 17 18 19 20 21 22 23 24 25 26 27 28 29 30 31 32 33 34 35 36 37 38 39 40 41 42 43 44 45 46 47 48 49 50
000
ASUS41 KBOX 100710
RWRBOX

REGIONAL WEATHER ROUNDUP
NATIONAL WEATHER SERVICE TAUNTON MA
300 AM EDT THU JUL 10 2014

NOTE:  "FAIR" INDICATES FEW OR NO CLOUDS BELOW 12,000 FEET WITH NO
SIGNIFICANT WEATHER AND/OR OBSTRUCTIONS TO VISIBILITY.  THE FOLLOWING
OBSERVATION LOCATIONS DO NOT REPORT PRESENT WEATHER...PROVINCETOWN...
SMITHFIELD...BLOCK ISLAND...KEENE...AND OXFORD.

MAZALL-100800-
EASTERN MASSACHUSETTS

CITY           SKY/WX    TMP DP  RH WIND       PRES   REMARKS
BOSTON         CLOUDY    74  60  61 W8        29.95R
BEVERLY        CLOUDY    68  61  78 W6        29.94S
LAWRENCE       MOCLDY    65  63  93 SW6       29.98R
BEDFORD        CLOUDY    65  63  93 W5        29.95R
BLUE HILL        N/A     69  60  73 W9        29.97R
NORWOOD        CLOUDY    71  61  70 SW7       29.96R
MARSHFIELD     CLOUDY    72  70  94 SW7       29.98R
PLYMOUTH       LGT RAIN  70  66  87 S8G20     30.00R
TAUNTON        CLOUDY    71  69  93 S7        29.99R
NEW BEDFORD    RAIN      70  68  93 SW7       29.99R FOG
$$

MAZALL-100800-
CAPE COD AND THE ISLANDS

CITY           SKY/WX    TMP DP  RH WIND       PRES   REMARKS
FALMOUTH       TSTM      70  68  94 SW20G28   30.00R
HYANNIS        TSTM      71  69  93 SW15G26   29.99R FOG
CHATHAM        LGT RAIN  70  69  97 W16G25    30.00R FOG
PROVINCETOWN   CLOUDY    68  66  94 S15       29.98R
NANTUCKET      LGT RAIN  67  65  93 W16G23    29.97F
MARTHAS VNYRD  RAIN      67  66  97 W13G21    30.00S FOG
$$

MAZALL-100800-
CENTRAL AND WESTERN MASSACHUSETTS

CITY           SKY/WX    TMP DP  RH WIND       PRES   REMARKS
WORCESTER      MOCLDY    63  60  90 W7        30.00R
FITCHBURG      PTCLDY    67  63  87 CALM      29.98R
ORANGE           N/A    N/A N/A N/A MISG      30.00R
SPRINGFIELD    MOCLDY    64  63  97 CALM      29.99R
WESTFIELD      CLOUDY    67  62  84 N3        30.00R
NORTH ADAMS    MOCLDY    61  60  97 NW6       30.02S
PITTSFIELD     PTCLDY    62  55  77 W5        30.03R
$$

RIZALL-100800-
RHODE ISLAND

CITY           SKY/WX    TMP DP  RH WIND       PRES   REMARKS
PROVIDENCE     CLOUDY    72  69  90 S13       30.00R
NEWPORT        LGT RAIN  69  67  93 CALM      29.98S FOG
BLOCK ISLAND   CLOUDY    70  68  94 W8        29.96F
SMITHFIELD     CLOUDY    68  63  83 CALM      30.00R
WESTERLY       CLOUDY    71  68  90 CALM      29.98R FOG
$$

CTZALL-100800-
CONNECTICUT

CITY           SKY/WX    TMP DP  RH WIND       PRES   REMARKS
BRADLEY INTL   MOCLDY    65  62  90 NW5       29.99R
HARTFORD       MOCLDY    68  62  81 N6        29.98R
BRIDGEPORT     MOCLDY    73  66  78 NW5       29.99R
DANBURY        PTCLDY    65  62  90 CALM      30.01S
GROTON         LGT RAIN  70  69  97 CALM      29.96F
NEW HAVEN      CLOUDY    73  67  81 NW3       29.98R
CHESTER        MOCLDY    70  68  94 CALM      30.00R
MERIDEN        MOCLDY    69  65  86 N3        29.99R
WILLIMANTIC    CLOUDY    69  64  84 CALM      29.99R
OXFORD         PTCLDY    64  59  82 N5        30.02S
$$

MEZ002-015-021-024-NHZ003-005-008-011-012-014-VTZ005-008-100800-
NORTHERN NEW ENGLAND

CITY           SKY/WX    TMP DP  RH WIND       PRES   REMARKS
PORTLAND ME    MOCLDY    66  63  90 SW3       29.91R
BANGOR ME      CLOUDY    66  61  84 S3        29.88S
CONCORD NH     PTCLDY    64  61  90 NW5       29.96S
MANCHESTER NH  MOCLDY    67  64  90 SW3       29.95R
NASHUA NH      PTCLDY    65  65 100 VRB3      29.97R
PORTSMOUTH NH  MOCLDY    66  65  94 SW6       29.93R
JAFFREY NH     CLOUDY    63  61  93 CALM      30.01S
KEENE NH       CLOUDY    63  55  77 CALM      30.00S VSB 1/2
BURLINGTON VT  CLEAR     64  53  67 SW6       29.98R
MT. WASHINGTON FOG       46  46 100 W41G55      N/A  VSB 0
$$

NYZ052-076-100800-
EASTERN NEW YORK

CITY           SKY/WX    TMP DP  RH WIND       PRES   REMARKS
ALBANY         PTCLDY    60  57  89 SW3       30.02R
NEW YORK CITY  MOCLDY    75  60  59 N5        29.97S
$$

ANZALL-100800-
MARINE OBSERVATIONS

STATION/POSITION TIME  TEMP    WIND        PRES    VSBY  WAVE
                       AIR SEA DIR/SP/G                  HT/PER
                 (UTC) (F)     (DEG/KT/KT) (MB)    (MI)  (FT/S)
BOSTON BUOY      NOT AVBL
BUZZARDS BAY     NOT AVBL
NANTUCKET SOUND  NOT AVBL
MASS BAY-STELLWA NOT AVBL
ISLE OF SHOALS   NOT AVBL
S OF BLOCK IS    NOT AVBL
$$

......................KEY.........................
  SKY/WX - SKY CONDITION/PRESENT WEATHER
  TMP    - TEMPERATURE IN FAHRENHEIT
  DWPT   - DEWPOINT IN FAHRENHEIT
  RH     - RELATIVE HUMIDITY IN PERCENT
  WIND   - DIRECTION AND SPEED IN MPH
  PRES   - MEAN SEA LEVEL PRESSURE IN INCHES OF HG
  WCI    - WIND CHILL INDEX
  VSB    - VISIBILITY IN MILES
  HX     - HEAT INDEX
  TC     - TEMPERATURE IN CELSIUS
  VRB    - VARIABLE WIND DIRECTION
  N/A    - NOT AVAILABLE


USA.gov is the U.S. government's official web portal to all federal, state and local government web resources and services.